Weather History for Athens, OH

Change the Weather History Date:

Monday, January 21, 2013

  Actual Average (KPKB) Record (KPKB)
Temperature  
Mean Temperature 20 °F 31 °F  
Max Temperature 29 °F 40 °F 74 °F (1906)
Min Temperature 12 °F 23 °F -20 °F (1985)
Degree Days  
Heating Degree Days 44 34  
Month to date heating degree days 707  
Since 1 July heating degree days 2617  
Cooling Degree Days 0 0  
Month to date cooling degree days 0  
Year to date cooling degree days 0  
Moisture  
Dew Point 12 °F    
Average Humidity 61    
Maximum Humidity 80    
Minimum Humidity 50    
Precipitation  
Precipitation 0.00 in 0.10 in 0.54 in (2012)
Month to date precipitation 1.99  
Year to date precipitation 1.99  
Sea Level Pressure  
Sea Level Pressure 30.08 in    
Wind  
Wind Speed 6 mph (West)    
Max Wind Speed 18 mph    
Max Gust Speed 26 mph    
Visibility 9 miles    
Events Snow    
T = Trace of Precipitation, MM = Missing Value Source: NWS Daily Summary

Daily Weather History Graph

Daily Weather History Graph

Search for Another Location

Airport:

Trip Planner

Search our weather history database for the weather conditions in past years. The results will help you decide how hot, cold, wet, or windy it might be!

Date:

Astronomy

Jan. 21, 2013 Rise Set
Actual Time 7:43 AM EST 5:37 PM EST
Civil Twilight 7:14 AM EST 6:06 PM EST
Nautical Twilight 6:42 AM EST 6:38 PM EST
Astronomical Twilight 6:10 AM EST 7:10 PM EST
Moon 1:16 PM EST (1/21) 3:10 AM EST (1/21)
Length of Visible Light 10h 51m
Length of Day
9h 53m
Waxing Gibbous, 75% of the Moon is Illuminated
Jan 21
Waxing Gibbous
Jan 26
Full
Feb 3
Last Quarter
Feb 10
New
Feb 17
First Quarter

Hourly Weather History & Observations

Time (EST) Temp. Windchill Dew Point Humidity Pressure Visibility Wind Dir Wind Speed Gust Speed Precip Events Conditions
12:15 AM 25.3 °F - 15.1 °F 65% 30.15 in 10.0 mi Calm Calm - N/A   Mostly Cloudy
12:35 AM 25.7 °F - 15.6 °F 66% 30.14 in 10.0 mi Calm Calm - N/A   Overcast
12:55 AM 26.4 °F 22.4 °F 13.6 °F 59% 30.13 in 10.0 mi NNW 3.5 mph - N/A   Overcast
1:15 AM 26.2 °F 22.1 °F 14.4 °F 61% 30.12 in 10.0 mi NNW 3.5 mph - N/A   Overcast
1:35 AM 26.2 °F - 14.4 °F 61% 30.12 in 10.0 mi Calm Calm - N/A   Overcast
1:55 AM 26.4 °F - 13.6 °F 59% 30.12 in 10.0 mi Calm Calm - N/A   Overcast
2:15 AM 26.2 °F - 14.2 °F 60% 30.12 in 10.0 mi Calm Calm - N/A   Overcast
2:35 AM 25.2 °F - 14.7 °F 65% 30.12 in 10.0 mi Calm Calm - N/A   Mostly Cloudy
2:55 AM 25.5 °F - 14.0 °F 62% 30.11 in 10.0 mi Calm Calm - N/A   Overcast
3:15 AM 25.7 °F - 15.3 °F 65% 30.11 in 10.0 mi Calm Calm - N/A   Overcast
3:35 AM 25.7 °F 21.5 °F 14.4 °F 62% 30.11 in 10.0 mi WSW 3.5 mph - N/A   Overcast
3:55 AM 25.7 °F 21.5 °F 15.1 °F 64% 30.10 in 10.0 mi WSW 3.5 mph - N/A   Overcast
4:15 AM 25.9 °F 21.7 °F 14.7 °F 63% 30.10 in 10.0 mi West 3.5 mph - N/A   Overcast
4:35 AM 25.7 °F 21.5 °F 14.5 °F 63% 30.09 in 10.0 mi WSW 3.5 mph - N/A   Overcast
4:55 AM 25.7 °F - 14.2 °F 62% 30.09 in 10.0 mi Calm Calm - N/A   Overcast
5:15 AM 25.7 °F 20.1 °F 14.5 °F 63% 30.08 in 10.0 mi SW 4.6 mph - N/A   Overcast
5:55 AM 25.7 °F 20.1 °F 14.7 °F 63% 30.08 in 10.0 mi WSW 4.6 mph - N/A   Overcast
6:15 AM 25.7 °F 20.1 °F 14.7 °F 63% 30.09 in 10.0 mi WSW 4.6 mph - N/A   Overcast
6:35 AM 25.5 °F 21.3 °F 14.7 °F 64% 30.08 in 10.0 mi SW 3.5 mph - N/A   Overcast
6:55 AM 25.5 °F 19.9 °F 14.9 °F 64% 30.08 in 10.0 mi SW 4.6 mph - N/A   Overcast
7:15 AM 25.5 °F 18.7 °F 14.2 °F 62% 30.07 in 10.0 mi West 5.8 mph - N/A   Overcast
7:35 AM 25.5 °F 18.7 °F 14.0 °F 62% 30.07 in 10.0 mi WSW 5.8 mph - N/A   Overcast
7:55 AM 25.5 °F 21.3 °F 14.4 °F 63% 30.06 in 10.0 mi WSW 3.5 mph - N/A   Overcast
8:15 AM 25.5 °F 19.9 °F 14.9 °F 64% 30.06 in 10.0 mi WSW 4.6 mph - N/A   Overcast
8:35 AM 25.5 °F 19.9 °F 15.1 °F 65% 30.05 in 10.0 mi SW 4.6 mph - N/A   Scattered Clouds
8:55 AM 26.2 °F 20.7 °F 15.1 °F 63% 30.05 in 10.0 mi SW 4.6 mph - N/A   Clear
9:15 AM 27.1 °F 20.7 °F 15.3 °F 61% 30.05 in 10.0 mi WSW 5.8 mph - N/A   Clear
9:35 AM 27.5 °F 19.3 °F 14.9 °F 59% 30.05 in 10.0 mi WSW 8.1 mph - N/A   Clear
9:55 AM 28.6 °F 18.2 °F 15.3 °F 58% 30.05 in 10.0 mi West 12.7 mph 18.4 mph N/A   Scattered Clouds
10:15 AM 28.9 °F 17.3 °F 14.7 °F 55% 30.06 in 10.0 mi West 16.1 mph 20.7 mph N/A   Scattered Clouds
10:35 AM 28.8 °F 17.0 °F 15.3 °F 57% 30.06 in 10.0 mi West 16.1 mph - N/A   Scattered Clouds
10:55 AM 28.4 °F 16.2 °F 15.3 °F 58% 30.04 in 10.0 mi West 17.3 mph - N/A   Mostly Cloudy
11:15 AM 28.8 °F 17.9 °F 15.8 °F 58% 30.04 in 10.0 mi West 13.8 mph - N/A Snow Light Snow
11:35 AM 29.1 °F 17.9 °F 15.8 °F 58% 30.03 in 10.0 mi West 15.0 mph 21.9 mph N/A   Overcast
11:55 AM 29.3 °F 17.3 °F 14.9 °F 55% 30.02 in 10.0 mi West 17.3 mph 21.9 mph N/A   Overcast
12:15 PM 28.2 °F 18.3 °F 15.4 °F 59% 30.02 in 10.0 mi West 11.5 mph 20.7 mph N/A   Overcast
12:35 PM 28.0 °F 16.5 °F 15.4 °F 59% 30.01 in 10.0 mi West 15.0 mph 19.6 mph N/A Snow Light Snow
12:55 PM 28.9 °F 18.6 °F 14.9 °F 56% 30.01 in 10.0 mi West 12.7 mph 25.3 mph N/A   Overcast
1:15 PM 28.4 °F 16.6 °F 12.2 °F 51% 30.00 in 10.0 mi West 16.1 mph 26.5 mph N/A   Overcast
1:35 PM 27.5 °F 15.4 °F 14.5 °F 58% 30.00 in 7.0 mi West 16.1 mph 23.0 mph N/A Snow Light Snow
1:55 PM 26.4 °F 14.0 °F 16.9 °F 67% 30.02 in 2.5 mi West 16.1 mph 21.9 mph N/A Snow Light Snow
2:15 PM 27.9 °F 16.3 °F 18.3 °F 67% 30.01 in 5.0 mi West 15.0 mph 20.7 mph N/A Snow Light Snow
2:35 PM 28.0 °F 17.5 °F 16.2 °F 61% 30.01 in 10.0 mi WNW 12.7 mph 18.4 mph N/A   Overcast
2:55 PM 26.4 °F 14.0 °F 14.9 °F 62% 30.02 in 10.0 mi WNW 16.1 mph - N/A   Overcast
3:15 PM 25.7 °F 14.0 °F 17.4 °F 71% 30.02 in 3.0 mi WSW 13.8 mph 23.0 mph N/A Snow Light Snow
3:35 PM 25.5 °F 14.3 °F 18.0 °F 73% 30.03 in 2.0 mi WNW 12.7 mph 19.6 mph N/A Snow Light Snow
3:55 PM 23.9 °F 12.9 °F 18.5 °F 80% 30.04 in 1.5 mi West 11.5 mph - N/A Snow Light Snow
4:15 PM 23.9 °F 9.9 °F 15.8 °F 71% 30.05 in 10.0 mi West 18.4 mph 24.2 mph N/A   Mostly Cloudy
4:35 PM 23.9 °F 9.9 °F 14.5 °F 67% 30.05 in 10.0 mi West 18.4 mph 24.2 mph N/A   Mostly Cloudy
4:55 PM 23.7 °F 10.5 °F 14.5 °F 68% 30.06 in 7.0 mi WNW 16.1 mph 24.2 mph N/A Snow Light Snow
5:15 PM 23.0 °F 10.1 °F 13.1 °F 66% 30.06 in 10.0 mi West 15.0 mph 19.6 mph N/A   Overcast
5:35 PM 23.0 °F 11.1 °F 9.0 °F 55% 30.07 in 10.0 mi West 12.7 mph 21.9 mph N/A   Overcast
5:55 PM 22.6 °F 11.3 °F 6.6 °F 50% 30.07 in 10.0 mi WNW 11.5 mph 19.6 mph N/A   Mostly Cloudy
6:15 PM 21.6 °F 9.3 °F 6.6 °F 53% 30.09 in 10.0 mi West 12.7 mph 20.7 mph N/A   Mostly Cloudy
6:35 PM 20.8 °F 7.9 °F 5.9 °F 53% 30.09 in 10.0 mi West 13.8 mph 18.4 mph N/A   Scattered Clouds
6:55 PM 20.1 °F 8.1 °F 5.5 °F 53% 30.10 in 10.0 mi WNW 11.5 mph 20.7 mph N/A   Clear
7:15 PM 19.2 °F 7.0 °F 5.0 °F 54% 30.11 in 10.0 mi WNW 11.5 mph 19.6 mph N/A   Clear
7:35 PM 18.5 °F 6.1 °F 4.5 °F 54% 30.11 in 10.0 mi WNW 11.5 mph 19.6 mph N/A   Clear
7:55 PM 17.8 °F 5.9 °F 4.3 °F 56% 30.12 in 10.0 mi WNW 10.4 mph 20.7 mph N/A   Clear
8:15 PM 17.2 °F 2.7 °F 3.9 °F 56% 30.12 in 10.0 mi WNW 15.0 mph 21.9 mph N/A   Clear
8:35 PM 16.3 °F 6.7 °F 3.9 °F 58% 30.13 in 10.0 mi WNW 6.9 mph - N/A   Clear
8:55 PM 15.8 °F 3.4 °F 3.2 °F 58% 30.14 in 10.0 mi West 10.4 mph - N/A   Clear
9:15 PM 15.4 °F 3.8 °F 3.2 °F 59% 30.15 in 10.0 mi WNW 9.2 mph - N/A   Clear
9:35 PM 14.9 °F 1.6 °F 3.6 °F 61% 30.16 in 10.0 mi WNW 11.5 mph 17.3 mph N/A   Clear
9:55 PM 14.7 °F 1.4 °F 3.4 °F 61% 30.17 in 10.0 mi WNW 11.5 mph 17.3 mph N/A   Clear
10:15 PM 14.7 °F 2.9 °F 3.2 °F 60% 30.17 in 10.0 mi WNW 9.2 mph 18.4 mph N/A   Clear
10:35 PM 14.0 °F -0.2 °F 3.6 °F 63% 30.17 in 10.0 mi NW 12.7 mph 17.3 mph N/A   Clear
10:55 PM 14.0 °F -2.5 °F 0.3 °F 55% 30.17 in 10.0 mi West 17.3 mph 26.5 mph N/A   Clear
11:15 PM 13.5 °F -2.7 °F -0.8 °F 53% 30.18 in 10.0 mi West 16.1 mph 23.0 mph N/A   Clear
11:35 PM 12.9 °F -1.6 °F -1.5 °F 53% 30.18 in 10.0 mi WNW 12.7 mph 19.6 mph N/A   Clear
11:55 PM 12.6 °F -0.6 °F -1.7 °F 53% 30.19 in 10.0 mi WNW 10.4 mph 20.7 mph N/A   Clear